Location: Bouchavesnes-Bergen
(49.9859°N, 2.9203°E)
Time: 03:53:42
(UTC+00:00)

Envisat - Pass Details

Date: 12 February 2023
Orbit: 763 x 765 km, 98.2° (Epoch: 30 March)

Event Time Altitude Azimuth Distance (km) Brightness Sun altitude
Rises 03:24:59 0° 19° (NNE) 3,245 6.8 -35.4°
Reaches altitude 10° 03:27:25 10° 27° (NNE) 2,314 6.0 -35.0°
Enters shadow 03:31:03 36° 64° (ENE) 1,208 4.4 -34.5°
